TimeEST,TemperatureF,Dew PointF,Humidity,Sea Level PressureIn,VisibilityMPH,Wind Direction,Wind SpeedMPH,Gust SpeedMPH,PrecipitationIn,Events,Conditions,WindDirDegrees,DateUTC
12:14 AM,6.6,-3.6,63,29.83,10.0,WNW,15.0,-,N/A,,Clear,290,2014-01-26 05:14:00
12:34 AM,6.1,-4.0,63,29.84,10.0,West,10.4,-,N/A,,Clear,280,2014-01-26 05:34:00
12:54 AM,5.9,-4.0,64,29.84,10.0,West,8.1,-,N/A,,Clear,280,2014-01-26 05:54:00
1:14 AM,4.8,-4.4,66,29.83,10.0,West,5.8,-,N/A,,Clear,280,2014-01-26 06:14:00
1:34 AM,1.8,-6.2,69,29.82,10.0,WSW,5.8,-,N/A,,Clear,250,2014-01-26 06:34:00
1:54 AM,2.5,-5.4,70,29.84,10.0,West,6.9,-,N/A,,Clear,260,2014-01-26 06:54:00
2:14 AM,2.8,-4.5,71,29.83,10.0,WSW,6.9,-,N/A,,Clear,250,2014-01-26 07:14:00
2:34 AM,1.8,-5.4,72,29.84,10.0,WSW,9.2,-,N/A,,Clear,240,2014-01-26 07:34:00
2:54 AM,2.8,-4.4,72,29.84,10.0,WSW,10.4,-,N/A,,Clear,240,2014-01-26 07:54:00
3:14 AM,3.6,-4.0,71,29.84,10.0,WSW,10.4,-,N/A,,Clear,240,2014-01-26 08:14:00
3:34 AM,3.2,-4.2,71,29.82,10.0,SW,6.9,-,N/A,,Clear,220,2014-01-26 08:34:00
3:54 AM,2.1,-4.5,74,29.83,10.0,SW,10.4,-,N/A,,Clear,230,2014-01-26 08:54:00
4:14 AM,3.2,-4.0,72,29.81,10.0,SW,6.9,-,N/A,,Scattered Clouds,230,2014-01-26 09:14:00
4:34 AM,2.7,-4.2,73,29.80,10.0,SW,8.1,-,N/A,,Scattered Clouds,230,2014-01-26 09:34:00
4:54 AM,1.9,-4.7,74,29.80,10.0,SW,10.4,-,N/A,,Clear,230,2014-01-26 09:54:00
5:14 AM,3.9,-3.3,72,29.78,10.0,SW,9.2,-,N/A,,Clear,220,2014-01-26 10:14:00
5:34 AM,3.2,-4.0,72,29.77,10.0,SW,6.9,-,N/A,,Clear,220,2014-01-26 10:34:00
5:54 AM,4.1,-3.1,72,29.76,10.0,SW,6.9,-,N/A,,Scattered Clouds,220,2014-01-26 10:54:00
6:14 AM,5.7,-2.2,70,29.76,10.0,SSW,9.2,-,N/A,,Mostly Cloudy,200,2014-01-26 11:14:00
6:34 AM,6.3,-1.7,70,29.76,10.0,SSW,10.4,-,N/A,,Overcast,200,2014-01-26 11:34:00
6:54 AM,6.6,-1.3,70,29.76,10.0,SSW,11.5,-,N/A,,Overcast,210,2014-01-26 11:54:00
7:14 AM,7.3,-1.3,68,29.74,10.0,SSW,9.2,16.1,N/A,,Overcast,200,2014-01-26 12:14:00
7:34 AM,7.7,-0.6,69,29.74,10.0,SSW,6.9,-,N/A,,Overcast,200,2014-01-26 12:34:00
7:54 AM,7.7,0.5,72,29.72,1.2,South,8.1,-,N/A,,Overcast,190,2014-01-26 12:54:00
8:14 AM,7.7,2.8,81,29.71,0.8,SSW,8.1,-,N/A,,Overcast,200,2014-01-26 13:14:00
8:34 AM,8.1,3.7,83,29.70,0.5,South,8.1,-,N/A,,Overcast,190,2014-01-26 13:34:00
8:54 AM,8.4,4.1,83,29.68,0.5,South,10.4,-,N/A,,Overcast,190,2014-01-26 13:54:00
9:14 AM,9.0,4.8,83,29.67,0.5,South,11.5,-,N/A,,Overcast,180,2014-01-26 14:14:00
9:34 AM,9.1,4.6,82,29.66,0.8,South,10.4,-,N/A,,Overcast,180,2014-01-26 14:34:00
9:54 AM,9.5,5.0,82,29.67,0.5,SSW,11.5,-,N/A,,Overcast,200,2014-01-26 14:54:00
10:15 AM,10.0,5.5,82,29.68,0.8,South,10.4,-,N/A,,Overcast,190,2014-01-26 15:15:00
10:34 AM,10.4,5.9,82,29.67,0.8,South,10.4,-,N/A,,Overcast,190,2014-01-26 15:34:00
10:54 AM,11.1,6.6,82,29.65,1.2,South,8.1,-,N/A,,Overcast,180,2014-01-26 15:54:00
11:15 AM,12.4,7.3,80,29.63,5.0,South,9.2,-,N/A,,Overcast,180,2014-01-26 16:15:00
11:34 AM,13.3,8.1,80,29.62,7.0,South,11.5,18.4,N/A,,Overcast,190,2014-01-26 16:34:00
11:54 AM,13.8,8.2,78,29.61,10.0,SSW,10.4,-,N/A,,Overcast,200,2014-01-26 16:54:00
12:15 PM,14.7,8.6,77,29.58,10.0,South,15.0,-,N/A,,Overcast,190,2014-01-26 17:15:00
12:34 PM,15.8,8.4,73,29.56,10.0,SSW,16.1,20.7,N/A,,Overcast,200,2014-01-26 17:34:00
12:54 PM,16.3,8.6,72,29.56,10.0,SSW,12.7,19.6,N/A,,Overcast,200,2014-01-26 17:54:00
1:15 PM,16.7,8.6,70,29.54,10.0,SSW,12.7,-,N/A,,Overcast,200,2014-01-26 18:15:00
1:34 PM,17.6,9.1,69,29.54,10.0,SSW,13.8,-,N/A,,Overcast,200,2014-01-26 18:34:00
1:54 PM,19.0,10.2,69,29.53,10.0,SSW,11.5,-,N/A,,Overcast,200,2014-01-26 18:54:00
2:14 PM,20.1,10.4,66,29.52,10.0,SSW,10.4,-,N/A,,Overcast,200,2014-01-26 19:14:00
2:34 PM,21.4,11.3,65,29.52,10.0,SSW,9.2,-,N/A,,Overcast,200,2014-01-26 19:34:00
2:54 PM,22.3,12.9,67,29.51,10.0,South,8.1,-,N/A,,Overcast,180,2014-01-26 19:54:00
3:14 PM,25.7,15.4,65,29.51,10.0,SW,8.1,-,N/A,,Overcast,230,2014-01-26 20:14:00
3:34 PM,30.2,17.6,60,29.50,10.0,SW,11.5,-,N/A,,Overcast,230,2014-01-26 20:34:00
3:54 PM,31.1,18.3,59,29.50,10.0,SW,10.4,-,N/A,,Overcast,230,2014-01-26 20:54:00
4:14 PM,32.0,19.8,61,29.51,10.0,WSW,11.5,-,N/A,,Overcast,240,2014-01-26 21:14:00
4:34 PM,32.9,21.4,63,29.51,10.0,WSW,15.0,20.7,N/A,,Overcast,240,2014-01-26 21:34:00
4:54 PM,34.2,23.4,65,29.51,10.0,WSW,17.3,23.0,N/A,,Overcast,250,2014-01-26 21:54:00
5:14 PM,35.2,25.2,67,29.51,10.0,WSW,17.3,23.0,N/A,,Overcast,240,2014-01-26 22:14:00
5:34 PM,36.3,25.5,65,29.52,10.0,WSW,18.4,24.2,N/A,,Overcast,250,2014-01-26 22:34:00
5:54 PM,36.9,25.7,64,29.54,10.0,WSW,16.1,23.0,N/A,,Overcast,250,2014-01-26 22:54:00
6:14 PM,37.4,26.1,64,29.54,10.0,WSW,15.0,-,N/A,,Overcast,240,2014-01-26 23:14:00
6:34 PM,37.6,26.2,64,29.55,10.0,WSW,16.1,-,N/A,,Overcast,250,2014-01-26 23:34:00
6:54 PM,36.9,25.7,64,29.56,10.0,WSW,13.8,-,N/A,,Mostly Cloudy,250,2014-01-26 23:54:00
7:14 PM,36.7,26.4,66,29.56,10.0,West,18.4,24.2,N/A,,Scattered Clouds,260,2014-01-27 00:14:00
7:34 PM,36.9,26.4,66,29.57,10.0,WSW,12.7,-,N/A,,Scattered Clouds,250,2014-01-27 00:34:00
7:54 PM,37.4,27.1,66,29.56,10.0,WSW,11.5,-,N/A,,Overcast,240,2014-01-27 00:54:00
8:14 PM,36.3,26.4,67,29.56,10.0,WSW,11.5,-,N/A,,Mostly Cloudy,250,2014-01-27 01:14:00
8:34 PM,36.7,26.8,67,29.57,10.0,WSW,9.2,-,N/A,,Overcast,250,2014-01-27 01:34:00
8:54 PM,35.6,27.0,71,29.56,10.0,SW,9.2,-,N/A,,Overcast,230,2014-01-27 01:54:00
9:14 PM,35.8,27.1,71,29.55,10.0,SW,9.2,-,N/A,,Overcast,230,2014-01-27 02:14:00
9:34 PM,36.5,27.5,70,29.54,10.0,SW,10.4,-,N/A,,Overcast,230,2014-01-27 02:34:00
9:54 PM,36.5,26.8,68,29.52,10.0,SW,10.4,-,N/A,,Mostly Cloudy,220,2014-01-27 02:54:00
10:15 PM,35.8,26.4,69,29.51,10.0,SSW,11.5,-,N/A,,Mostly Cloudy,210,2014-01-27 03:15:00
10:34 PM,35.8,26.2,68,29.50,10.0,SSW,11.5,-,N/A,,Scattered Clouds,210,2014-01-27 03:34:00
10:54 PM,35.2,26.4,70,29.50,10.0,SW,9.2,-,N/A,,Mostly Cloudy,230,2014-01-27 03:54:00
11:15 PM,36.1,27.3,70,29.50,10.0,SW,12.7,-,N/A,,Overcast,230,2014-01-27 04:15:00
11:34 PM,36.5,27.5,70,29.49,10.0,SW,11.5,-,N/A,,Overcast,220,2014-01-27 04:34:00
11:54 PM,36.5,27.5,70,29.49,10.0,SW,12.7,-,N/A,,Overcast,220,2014-01-27 04:54:00